International Virtual Aviation Organisation

Russian Federation and Kazakhstan MCD

 

Карточка аэропорта UACC

Внимание!
Информация на этой странице в стадии наполнения.
Если вы не увидели какой-то информации, или заметили неточность - пожалуйста сообщите нам!
Спасибо!
Команда RU-STAFF
Название аэропортаАстана
Название аэропорта (англ.)Astana
Превышение1165 ft. (355.1 m.)
Координаты51°1.3319999999999', 71°28.014'
Высота перехода3790
Эшелон переходаFL60
Коды ответчика0601-0627, 7201-7217
Зона ОрВДАстана РПИ (UACC)
Данные METARUACC 140730Z 22007MPS 9999 FEW050CB BKN150 14/05 Q1012 R22/0///70 NOSIG RMK QFE728/0971
Проноз погоды (TAF)UACC 140500Z 1406/1506 21009MPS 9999 SCT030CB BKN100 TX12/1410Z TN06/1424Z TEMPO 1406/1417 24010G15MPS 5000 -SHRA SCT011 BKN020CB BECMG 1417/1419 26008MPS BKN020CB BKN100 TEMPO 1417/1506 27008G13MPS 3100 SHRA BKN007 BKN015CB
NOTAMshow/hide NOTAM
AWOS   TABLE

Информация о ВПП

ВПП Длина ВПП (м.) Покрытие Курс ВПП Частота ILS
043500Асфальтобетон35109.5
223500Асфальтобетон215111.7

Диспетчерские позиции

Позывной Наименование органа УВД Частота
UACC_APPАстана Подход124.6
UACC_R_APPАстана Круг120.7
UACC_TWRАстана Вышка118.7
UACC_GNDАстана Руление119.6



Спутниковое изображение